CZ-6A DEB, 55234

Orbit data source: Space-Track

CZ-6A DEB, 55234 is space debris in SSO originally from a launch on Fri, 11 Nov 2022 UTC launched from the Taiyaun Space Center, China (TSC). Debris objects in space refer to the collection of defunct objects orbiting the Earth. Examples of debris include non-operational satellites, rocket bodies, and fragments generated from explosions, collisions, or faulty payload assembly.

Loading next visibility...
Identifier
55234, 2022-151XB
Orbit
SSO
Country
Flag of CNCN / PRC
Related business
Manufacturer
SAST
Mission
Spacecraft
Bus & Motor
Unknown
Mass
Unknown
Launch date (UTC)
2022-11-11 (3 years ago)
Launch vehicle
Unknown
Launch site
Taiyaun Space Center, China (TSC)
Object type
Payload
Rocket body
Debris
Shape & HBR
Unknown shape, 0.1 m
Radar Cross Section
Small (<0.1 m²)

Expand to show TLE details & history
Last TLE update: 15 hours ago

TLE from 15 hours ago
0 CZ-6A DEB
1 55234U 22151XB  25351.46177650  .00000274  00000-0  21579-3 0  9992
2 55234  98.8415 320.2952 0109451 198.9560 160.7515 13.96895238157627
Epoch: 2025-12-17T11:04Z
TLE epoch observation values (Epoch: 2025-12-17T11:04:57.489Z)
Latitude
0.00003°
Longitude
67.72436°
Altitude
982.807 km
Speed
7.322 km/s
True Right ascension
21h 21m 10s
True Declination
0° 00' 00"
Sunlit
Object was in daylight at epoch
Visualization orbit readout
Latitude
Unknown
Longitude
Unknown
Altitude
Unknown
Speed
Unknown
Apparent Right ascension
Unknown
Apparent Declination
Unknown
Sunlit
N/A
Visualization observer readout
Local Sidereal Time
00:49:20
Azimuth
Unknown
Elevation
Unknown
Doppler factor
Unknown
Orbital elements
Apogee altitude
981.441 km
Perigee altitude
822.082 km
Semi-major axis
7,279.899 km
Eccentricity
0.01095
Inclination
98.8415°
RAAN
320.2952°
Arg. of periapsis
198.956°
True anomaly
161.15969°
Mean anomaly
160.7515°
Eccentric anomaly
160.95612°
Mean motion
3.49426 °/min
Orbital period
103.03 mins
BSTAR
0.00021579
Loading maneuver chart data...
Computing Atmospheric mass density...
Loading historical data...
Loading historical data...
Loading historical data...
Loading historical data...
Loading historical data...
Loading historical data...
Loading historical data...

Documentation

Showing up to 5 results
|